Weather History for North Adams, MA

Change the Weather History Date:

Tuesday, January 22, 2013

  Actual Average Record
Temperature  
Mean Temperature 14 °F -  
Max Temperature 19 °F 25 °F 46 °F (1997)
Min Temperature 8 °F 9 °F -15 °F (2005)
Degree Days  
Heating Degree Days 52    
Moisture  
Dew Point 1 °F    
Average Humidity 58    
Maximum Humidity 81    
Minimum Humidity 33    
Precipitation  
Precipitation 0.00 in - - ()
Sea Level Pressure  
Sea Level Pressure 29.94 in    
Wind  
Wind Speed 8 mph (West)    
Max Wind Speed 21 mph    
Max Gust Speed 29 mph    
Visibility 7 miles    
Events Snow    
Averages and records for this station are not official NWS values.
T = Trace of Precipitation, MM = Missing Value Source: NWS Daily Summary

Daily Weather History Graph

Daily Weather History Graph

Search for Another Location

Airport:

Trip Planner

Search our weather history database for the weather conditions in past years. The results will help you decide how hot, cold, wet, or windy it might be!

Date:

Astronomy

Jan. 22, 2013 Rise Set
Actual Time 7:15 AM EST 4:53 PM EST
Civil Twilight 6:45 AM EST 5:24 PM EST
Nautical Twilight 6:10 AM EST 5:58 PM EST
Astronomical Twilight 5:37 AM EST 6:32 PM EST
Moon 1:13 PM EST 3:35 AM EST
Length of Visible Light 10h 38m
Length of Day
9h 37m
Waxing Gibbous, 82% of the Moon is Illuminated
Jan 22
Waxing Gibbous
Jan 26
Full
Feb 3
Last Quarter
Feb 10
New
Feb 17
First Quarter

Hourly Weather History & Observations

Time (EST) Temp. Windchill Dew Point Humidity Pressure Visibility Wind Dir Wind Speed Gust Speed Precip Events Conditions
12:01 AM 17.6 °F - 12.2 °F 79% 29.75 in 3.0 mi Calm Calm - 0.00 in Snow Light Snow
12:09 AM 17.6 °F 10.7 °F 12.2 °F 79% 29.75 in 4.0 mi NNW 4.6 mph - 0.00 in Snow Light Snow
12:52 AM 18.0 °F 9.8 °F 12.9 °F 81% 29.78 in 3.0 mi West 5.8 mph - 0.00 in Snow Light Snow
1:45 AM 19.4 °F 11.5 °F 12.2 °F 74% 29.75 in 9.0 mi West 5.8 mph - 0.00 in   Overcast
1:52 AM 19.0 °F 11.1 °F 12.0 °F 74% 29.79 in 10.0 mi West 5.8 mph - 0.00 in   Overcast
2:52 AM 19.0 °F 6.1 °F 7.0 °F 59% 29.81 in 10.0 mi West 12.7 mph 21.9 mph N/A   Overcast
3:21 AM 17.6 °F 7.3 °F 6.8 °F 63% 29.78 in 10.0 mi West 8.1 mph 20.7 mph N/A   Overcast
3:52 AM 17.1 °F 5.0 °F 6.1 °F 62% 29.81 in 10.0 mi West 10.4 mph - N/A   Overcast
4:52 AM 17.1 °F 4.3 °F 7.0 °F 65% 29.83 in 10.0 mi West 11.5 mph - 0.00 in   Overcast
5:20 AM 17.6 °F 3.7 °F 6.8 °F 63% 29.81 in 2.5 mi West 13.8 mph 19.6 mph 0.00 in Snow Light Snow
5:28 AM 15.8 °F 2.1 °F 6.8 °F 68% 29.81 in 4.0 mi West 12.7 mph - 0.00 in Snow Light Snow
5:52 AM 16.0 °F 0.6 °F 3.9 °F 59% 29.86 in 10.0 mi West 16.1 mph 23.0 mph 0.00 in   Overcast
6:52 AM 14.0 °F -0.8 °F 1.9 °F 59% 29.90 in 10.0 mi West 13.8 mph - N/A   Clear
7:52 AM 14.0 °F 0.5 °F -7.1 °F 39% 29.92 in 10.0 mi West 11.5 mph 20.7 mph N/A   Clear
8:52 AM 14.0 °F -1.4 °F -7.1 °F 39% 29.93 in 10.0 mi West 15.0 mph 20.7 mph N/A   Mostly Cloudy
9:52 AM 15.1 °F -0.6 °F -9.0 °F 34% 29.94 in 10.0 mi West 16.1 mph 27.6 mph N/A   Overcast
10:52 AM 17.1 °F 0.1 °F -8.0 °F 33% 29.94 in 10.0 mi West 20.7 mph 27.6 mph N/A   Scattered Clouds
11:52 AM 16.0 °F -0.4 °F -7.1 °F 36% 29.93 in 10.0 mi West 18.4 mph 26.5 mph N/A   Clear
12:52 PM 17.1 °F 5.8 °F -7.1 °F 34% 29.93 in 10.0 mi WNW 9.2 mph 24.2 mph N/A   Scattered Clouds
1:52 PM 16.0 °F 0.1 °F -7.1 °F 36% 29.93 in 10.0 mi West 17.3 mph 28.8 mph N/A   Mostly Cloudy
2:52 PM 16.0 °F 3.6 °F -7.1 °F 36% 29.95 in 10.0 mi WNW 10.4 mph 21.9 mph N/A   Overcast
3:52 PM 15.1 °F 5.2 °F -4.0 °F 43% 29.97 in 10.0 mi West 6.9 mph 20.7 mph N/A   Overcast
4:52 PM 14.0 °F -2.0 °F -4.0 °F 45% 30.00 in 10.0 mi West 16.1 mph 27.6 mph N/A   Scattered Clouds
5:52 PM 12.9 °F 0.7 °F -0.0 °F 56% 30.03 in 8.0 mi West 9.2 mph 25.3 mph 0.00 in   Overcast
6:52 PM 12.9 °F -0.2 °F -0.0 °F 56% 30.05 in 10.0 mi West 10.4 mph - N/A   Overcast
7:52 PM 12.0 °F 0.5 °F -2.0 °F 53% 30.06 in 10.0 mi West 8.1 mph 16.1 mph N/A   Overcast
8:52 PM 10.9 °F 0.2 °F -2.0 °F 56% 30.07 in 10.0 mi West 6.9 mph - N/A   Overcast
9:34 PM 10.4 °F -3.3 °F -0.4 °F 62% 30.04 in 5.0 mi WNW 10.4 mph 16.1 mph 0.00 in Snow Light Snow
9:41 PM 10.4 °F -2.4 °F -0.4 °F 62% 30.04 in 1.8 mi West 9.2 mph 16.1 mph 0.00 in Snow Light Snow
9:52 PM 9.0 °F -0.9 °F -0.9 °F 64% 30.09 in 1.2 mi Variable 5.8 mph 16.1 mph 0.00 in Snow Light Snow
10:04 PM 8.6 °F -2.6 °F -0.4 °F 67% 30.05 in 0.8 mi Variable 6.9 mph 17.3 mph 0.00 in Snow Light Snow
10:20 PM 8.6 °F 0.1 °F 1.4 °F 73% 30.05 in 0.2 mi WNW 4.6 mph - 0.00 in Snow Heavy Snow
10:29 PM 8.6 °F -2.6 °F 1.4 °F 73% 30.05 in 0.8 mi West 6.9 mph - 0.00 in Snow Light Snow
10:39 PM 8.6 °F 0.1 °F 1.4 °F 73% 30.05 in 1.5 mi WNW 4.6 mph - 0.00 in Snow Light Snow
10:42 PM 8.6 °F -1.3 °F 1.4 °F 73% 30.05 in 3.0 mi West 5.8 mph - 0.00 in Snow Light Snow
10:52 PM 9.0 °F -5.1 °F -2.0 °F 61% 30.10 in 10.0 mi West 10.4 mph 18.4 mph 0.00 in   Overcast
11:10 PM 8.6 °F -5.5 °F -2.2 °F 62% 30.06 in 10.0 mi West 10.4 mph 21.9 mph N/A   Overcast
11:52 PM 8.1 °F -7.0 °F -6.0 °F 53% 30.10 in 10.0 mi West 11.5 mph - N/A   Overcast